Flag for Brazil Weather past 2 weeks in Campo Grande, Mato Grosso Do Sul, Brazil

Now
52 °F

Partly cloudy.


Feels Like: 49 °F
Forecast: 50 / 69 °F
Wind: 9 mph from Southwest

Location: Campo Grande Aeroporto

Current Time: Jul 24, 2014 at 7:32:03 PM

Latest Report: Jul 24, 2014 at 7:00 PM


Visibility: N/A

Pressure: 30.18 "Hg

Humidity: 94%

Dew point: 50 °F

Location of Campo GrandeLocation

Historic Weather in Campo Grande — Graph

°F

Campo Grande temperature yesterday

Maximum temperature yesterday: 73 °F (at 5:00 AM)
Minimum temperature yesterday: 48 °F (at 10:00 AM)
Average temperature yesterday: 67 °F

Past Weeks' High & Low Weather Summary

 TemperatureHumidityPressure
High86 °F (Jul 17, 1:00 PM)100% (Jul 18, 2:00 AM)30.24 "Hg (Jul 18, 2:00 AM)
Low48 °F (Jul 23, 10:00 AM)30% (Jul 21, 4:00 PM)29.89 "Hg (Jul 23, 5:00 PM)
Average68 °F65%30.11 "Hg
* Reported Jul 9 6:00 PM — Jul 24 6:08 PM, Campo Grande, Weather by CustomWeather, © 2014

Note: Actual official high and low records may vary slightly from our data, if they occured in-between our weather recording intervals... More about our weather records

Advertising

Campo Grande weather history for previous 24 hours

 ConditionsComfort  
Time TempWeatherWind HumidityBarometerVisibility
6:08 PM
Jul 24
52 °FFog.10 mph100%30.15 "Hg2 mi
6:00 PM52 °FFog.13 mph94%30.15 "Hg2 mi
5:00 PM52 °FFog.10 mph100%30.15 "Hg1 mi
4:05 PM54 °FDrizzle. Fog.9 mph100%30.12 "Hg0 mi
4:00 PM54 °FDrizzle. Fog.10 mph100%30.12 "Hg1 mi
3:00 PM55 °FScattered showers. Broken clouds.10 mph100%30.09 "HgN/A
2:00 PM55 °FBroken clouds.12 mph94%30.09 "Hg4 mi
1:00 PM55 °FPartly sunny.8 mph94%30.09 "Hg4 mi
12:00 PM54 °FLight rain. Low clouds.13 mph100%30.12 "Hg2 mi
11:00 AM54 °FLight rain. Fog.10 mph100%30.09 "Hg1 mi
10:00 AM54 °FRain. Low clouds.16 mph100%30.09 "Hg2 mi
9:00 AM57 °FLight rain. Fog.9 mph100%30.07 "Hg2 mi
8:00 AM57 °FLight rain. Fog.8 mph100%30.01 "Hg2 mi
7:00 AM57 °FFog.7 mph100%30.01 "Hg0 mi
6:00 AM59 °FThundershowers. Broken clouds.14 mph100%29.98 "Hg1 mi
5:00 AM63 °FStrong thunderstorms. Dense fog.10 mph94%29.92 "Hg1 mi
4:00 AM63 °FThunderstorms. Passing clouds.6 mph94%N/A5 mi
3:00 AM63 °FThunderstorms. Passing clouds.6 mph94%29.92 "HgN/A
2:00 AM63 °FThunderstorms. Passing clouds.6 mphN/AN/A5 mi
1:00 AM61 °FPassing clouds.6 mph100%29.89 "HgN/A
12:00 AM63 °FLight rain. Passing clouds.2 mph94%N/AN/A
11:00 PM
Jul 23
64 °FThunderstorms. Passing clouds.9 mph88%N/A5 mi
10:00 PM70 °FThundershowers. Partly cloudy.15 mph69%N/AN/A
9:00 PM68 °FThundershowers. Passing clouds.7 mph73%N/AN/A
8:00 PM68 °FThundershowers. Passing clouds.13 mph73%N/AN/A
7:00 PM64 °FThundershowers. Passing clouds.6 mph83%N/AN/A
Weather by CustomWeather, © 2014

See weather overviewHow to use our weather pages